This is the latest recevied weather packets stored in our database for station/object KD8DNS. If no packets are shown the sender has not sent any weather packets the latest 10 day(s).
| Time | Temp. | Humidity | Pressure | Rain* | Wind** | Luminosity | Snow |
|---|---|---|---|---|---|---|---|
| 1788465390 | 36.11° C | 49% | 1017.9 hPa | 0 mm | - | 513 W/m² | - |
| 1788465085 | 36.11° C | 49% | 1018.1 hPa | 0 mm | - | 536 W/m² | - |
| 1788464780 | 36.11° C | 49% | 1018.2 hPa | 0 mm | - | 560 W/m² | - |
| 1788464475 | 35.56° C | 48% | 1018.3 hPa | 0 mm | - | 509 W/m² | - |
| 1788464171 | 36.11° C | 48% | 1018.2 hPa | 0 mm | - | 504 W/m² | - |
| 1788463866 | 36.11° C | 50% | 1018.5 hPa | 0 mm | - | 502 W/m² | - |
| 1788463563 | 36.11° C | 49% | 1018.6 hPa | 0 mm | - | 550 W/m² | - |
| 1788463263 | 36.11° C | 51% | 1018.7 hPa | 0 mm | - | 567 W/m² | - |
| 1788462959 | 36.11° C | 49% | 1018.6 hPa | 0 mm | - | 570 W/m² | - |
| 1788462654 | 36.11° C | 50% | 1018.7 hPa | 0 mm | - | 560 W/m² | - |
| 1788462348 | 36.11° C | 49% | 1018.8 hPa | 0 mm | - | 596 W/m² | - |
| 1788462048 | 36.67° C | 48% | 1018.7 hPa | 0 mm | - | 115 W/m² | - |
| 1788461743 | 36.11° C | 51% | 1018.8 hPa | 0 mm | - | 610 W/m² | - |
| 1788461438 | 36.11° C | 50% | 1018.8 hPa | 0 mm | - | 577 W/m² | - |
| 1788461135 | 36.11° C | 50% | 1018.9 hPa | 0 mm | - | 548 W/m² | - |
| 1788460835 | 36.67° C | 49% | 1018.9 hPa | 0 mm | - | 637 W/m² | - |
| 1788460534 | 36.11° C | 49% | 1019 hPa | 0 mm | - | 642 W/m² | - |
| 1788460229 | 36.11° C | 49% | 1019 hPa | 0 mm | - | 638 W/m² | - |
| 1788459927 | 35.56° C | 51% | 1019 hPa | 0 mm | - | 645 W/m² | - |
| 1788459625 | 35.56° C | 50% | 1019 hPa | 0 mm | - | 649 W/m² | - |
| 1788459323 | 35.56° C | 50% | 1019.1 hPa | 0 mm | - | 651 W/m² | - |
| 1788459023 | 36.11° C | 51% | 1018.9 hPa | 0 mm | - | 644 W/m² | - |
| 1788458718 | 36.11° C | 51% | 1019.2 hPa | 0 mm | - | 610 W/m² | - |
| 1788458418 | 36.11° C | 52% | 1019.1 hPa | 0 mm | - | 593 W/m² | - |
| 1788458117 | 35.56° C | 51% | 1019.3 hPa | 0 mm | - | 633 W/m² | - |
* Rain latest hour (hover to see other rain measurements)
** Current wind speed in m/s (hover to see current wind gust speed)